Location: Newark
(43.0000°N, 1.6781°W)
Time: 00:36:45
(UTC+00:00)

SO-50 - Visible Passes

Search period start: 01 December 2022 00:00
Search period end: 11 December 2022 00:00
Orbit: 584 x 697 km, 64.6° (Epoch: 30 November)

Date Brightness Start Highest point End Pass type
(mag) Time Alt. Az. Time Alt. Az. Time Alt. Az.
01 Dec ? 05:52:00 10° SSE 05:55:10 18° ESE 05:58:23 10° ENE visible
02 Dec ? 06:14:32 10° S 06:19:00 39° ESE 06:23:35 10° NE visible
03 Dec ? 05:01:58 10° SE 05:03:27 11° ESE 05:04:56 10° E visible
03 Dec ? 06:38:14 10° SSW 06:43:03 89° SE 06:48:01 10° NE visible
04 Dec ? 05:23:10 10° S 05:27:10 26° ESE 05:31:14 10° ENE visible
05 Dec ? 05:46:22 10° SSW 05:51:05 60° ESE 05:55:58 10° NE visible
06 Dec ? 04:32:11 10° SSE 04:35:23 18° ESE 04:38:36 10° ENE visible
06 Dec ? 06:10:29 10° SW 06:15:17 63° NW 06:20:11 10° NNE visible
07 Dec ? 04:54:43 10° S 04:59:11 40° ESE 05:03:47 10° NE visible
07 Dec ? 06:35:22 10° WSW 06:39:41 31° NW 06:44:06 10° NNE visible
08 Dec ? 03:42:39 11° ESE 03:43:37 11° ESE 03:45:10 10° E visible
08 Dec ? 05:20:23 25° SSW 05:23:14 89° SE 05:28:12 10° NE visible
09 Dec ? 04:08:04 26° E 04:08:04 26° E 04:11:25 10° ENE visible
09 Dec ? 05:45:44 31° W 05:47:32 43° NW 05:52:16 10° NNE visible
10 Dec ? 04:32:53 39° ENE 04:32:53 39° ENE 04:36:08 10° NE visible
10 Dec ? 06:10:32 20° WNW 06:12:04 23° NW 06:16:02 10° NNE visible
